[[{"header":{"parameterUnit":"m.s-1","parameterCategory":1,"la1":30.2991,"la2":30.254,"lo1":-89.0895,"lo2":-89.0444,"dy":0.0017,"dx":0.0017,"nx":28,"ny":28,"refTime":"2023-07-29T09:00:00:Z","depth":0,"parameterNumber":2,"parameterNumberName":"U-component_of_WINDS"},"data":[0,0,0,0,0,0,0,0,0,0,0,0,0,0,0,0,0,0,0,0,0,0,0,0,0,0,0,0,0,0,0,0,0,0,0,0,0,0,0,0,0,0,0,0,0,0,0,0,0,0,0,0,0,0,0,0,0,0,3.7287,3.7288,0,3.7394,3.7395,3.7396,3.7305,3.7301,3.7297,3.7293,3.7407,3.7414,3.742,0,0,0,0,0,0,0,0,0,0,0,0,0,3.7008,3.7014,3.7287,3.7288,3.729,3.7394,3.7395,3.7397,3.7305,3.7301,3.7296,3.7292,3.7405,3.7413,3.7421,0,0,0,0,0,0,0,0,0,0,0,0,0,3.7124,3.7015,3.7287,3.7256,3.7255,3.7393,3.7395,3.7397,3.7306,3.73,3.7295,3.7289,3.7403,3.7412,3.7422,3.7598,0,0,3.7452,3.7457,0,0,0,0,0,0,0,0,3.7117,3.7134,3.726,3.7259,3.7257,3.733,3.7338,3.7464,3.7308,3.7287,3.7293,3.7287,3.7387,3.7397,3.743,3.7603,3.7608,3.7453,3.7459,3.7463,3.7466,0,0,0,0,0,0,0,3.7109,3.7129,3.7329,3.7262,3.726,3.7239,3.7249,3.7362,3.7368,3.7288,3.7282,3.7295,3.7385,3.7421,3.7432,3.7609,3.7453,3.7462,3.7468,3.7472,3.7932,3.7938,0,0,0,0,0,0,3.7104,3.7123,3.7326,3.7333,3.7171,3.7249,3.726,3.7312,3.7366,3.7369,3.73,3.7291,3.7407,3.7421,3.7436,3.7645,3.7463,3.7473,3.7478,3.7926,3.7933,3.794,0,0,0,0,0,0,3.7098,3.7123,3.7322,3.7226,3.725,3.7259,3.7319,3.7318,3.7353,3.7375,3.7376,3.7336,3.7403,3.7422,3.7558,3.7648,3.7477,3.7486,3.7918,3.7928,3.7937,3.8066,0,0,0,0,0,0,3.7091,3.7121,3.7187,3.7228,3.7255,3.7441,3.7325,3.7324,3.737,3.7359,3.7409,3.7412,3.74,3.7544,3.7568,3.7658,3.7494,3.791,3.7923,3.7934,3.8053,3.8078,3.81,0,0,0,0,0,3.7081,3.722,3.7191,3.7216,3.7337,3.7446,3.7462,3.7444,3.7378,3.7445,3.7459,3.741,3.7634,3.7558,3.7585,3.768,3.7905,3.7919,3.7933,3.8043,3.8073,3.8099,0,0,0,0,0,0,3.7191,3.7225,3.7193,3.7349,3.7396,3.7431,3.7515,3.7477,3.7544,3.7531,3.7508,3.752,3.7663,3.7685,3.76,3.7853,3.7759,3.7779,3.7833,3.7862,3.7885,3.7877,3.7502,0,0,0,0,0,3.7233,3.7318,3.7343,3.7479,3.7503,3.7505,3.7552,3.7534,3.7582,3.7601,3.7625,3.7675,3.7756,3.781,3.7886,3.8056,3.8066,3.8134,3.8157,3.8176,3.8194,3.8286,3.8317,3.7987,3.7987,3.7986,0,0,3.7322,3.7351,3.7406,3.7501,3.7535,3.7624,3.7522,3.7621,3.7687,3.7617,3.7746,3.7766,3.7819,3.7973,3.8042,3.7995,3.8287,3.8194,3.8209,3.8217,3.8304,3.8335,3.8363,3.7997,3.7995,3.7993,0,0,3.7529,3.7559,3.7675,3.7711,3.7763,3.7763,3.7791,3.7832,3.7842,3.7971,3.792,3.7999,3.814,3.818,3.8219,3.8441,3.8399,3.8467,3.8588,3.8678,3.8704,3.8727,3.8807,3.8836,3.8484,3.8485,3.8485,0,3.7634,3.7764,3.774,3.7843,3.7887,3.7825,3.7944,3.798,3.8055,3.8087,3.8034,3.8209,3.824,3.8403,3.8457,3.849,3.8523,3.8461,3.8702,3.8724,3.8746,3.8822,3.8852,3.8493,3.8492,3.8491,3.849,0,3.789,3.7982,3.807,3.8142,3.8196,3.8306,3.83,3.8358,3.8335,3.8342,3.8475,3.851,3.8593,3.863,3.8609,3.879,3.8759,3.8705,3.861,3.8785,3.8857,3.8886,3.8504,3.8501,3.8499,3.8497,0,0,3.8171,3.8228,3.8261,3.8293,3.8345,3.8416,3.8524,3.8603,3.8653,3.8707,3.8797,3.8917,3.8867,3.8911,3.8895,3.8973,3.9148,3.8909,3.891,3.8953,3.935,3.9392,3.9426,3.912,3.9125,3.913,3.9346,0,3.8381,3.8567,3.8548,3.8725,3.881,3.8753,3.8846,3.889,3.8898,3.8973,3.8983,3.9069,3.8995,3.9021,3.9096,3.9111,3.9228,3.9095,3.9206,3.921,3.9195,3.9463,3.9507,3.9709,3.9373,3.9378,3.9381,0,3.8651,3.8713,3.8898,3.8937,3.8972,3.9057,3.9127,3.9199,3.9247,3.9248,3.9297,3.9267,3.9377,3.9279,3.943,3.934,3.9384,3.9398,3.9406,3.9416,3.9307,3.9482,3.9773,3.9804,3.9425,3.9422,3.9418,0,3.8839,3.8968,3.9095,3.9124,3.9173,3.9234,3.9258,3.9299,3.9348,3.9411,3.9442,3.9517,3.9559,3.9618,3.961,3.9539,3.9765,3.9666,3.977,3.977,3.9821,3.9818,4.0125,3.9848,3.9847,3.9847,3.9846,0,3.9076,3.9192,3.918,3.9259,3.9387,3.9365,3.9493,3.9509,3.9547,3.9629,3.9584,3.9662,3.9645,3.9724,3.9718,3.9844,3.9864,3.9868,3.9866,3.9873,3.9873,3.9902,3.9888,3.9855,3.9853,3.9851,3.985,0,3.9307,3.9304,3.9439,3.9474,3.9485,3.9578,3.9609,3.9684,3.9688,3.9792,3.9815,3.9823,3.9913,3.991,4.0012,4.0008,4.0164,4.0145,4.0148,4.0144,4.0248,4.0239,4.0586,4.063,4.0324,4.0327,4.0329,0,3.9459,3.9547,3.959,3.9641,3.9668,3.975,3.9799,3.9781,3.9834,3.9895,3.9963,4.0048,4.0115,4.0261,4.0277,4.0355,4.0338,4.0454,4.035,4.0354,4.0341,4.0336,4.0345,4.0475,4.0479,4.0481,4.0484,0,3.973,3.9724,3.9795,3.9867,3.9926,3.9982,4.0033,4.0077,4.0065,4.0127,4.0217,4.0269,4.0372,4.0458,4.0532,4.0558,4.052,4.0516,4.0544,4.0553,4.0552,4.0555,4.0205,4.0509,4.0506,4.0504,4.0503,4.0502,3.9927,4.0002,4.0044,4.0126,4.0162,4.021,4.0282,4.0295,4.0369,4.0451,4.0436,4.0537,4.0583,4.0679,4.0711,4.0791,4.075,4.0791,4.0802,4.0812,4.0824,4.0538,4.0805,4.0804,4.0803,4.0803,4.0802,0,4.0196,4.022,4.0295,4.0367,4.0431,4.0387,4.0441,4.0498,4.0588,4.0633,4.0699,4.0803,4.0886,4.0908,4.0987,4.1047,4.1032,4.1069,4.1065,4.1071,4.0856,4.0824,4.108,4.108,4.108,4.108,4.108,4.108,4.0344,4.0468,4.0467,4.061,4.0633,4.0731,4.0766,4.0811,4.0846,4.0964,4.1031,4.1044,4.1081,4.1163,4.1237,4.1241,4.1273,4.1318,4.1315,4.1114,4.1086,4.106,4.103,4.1324,4.1325,4.1524,4.1526,4.1527]},{"header":{"parameterUnit":"m.s-1","parameterCategory":1,"la1":30.2991,"la2":30.254,"lo1":-89.0895,"lo2":-89.0444,"dy":0.0017,"dx":0.0017,"nx":28,"ny":28,"refTime":"2023-07-29T09:00:00:Z","depth":0,"parameterNumber":3,"parameterNumberName":"V-component_of_WINDS"},"data":[0,0,0,0,0,0,0,0,0,0,0,0,0,0,0,0,0,0,0,0,0,0,0,0,0,0,0,0,0,0,0,0,0,0,0,0,0,0,0,0,0,0,0,0,0,0,0,0,0,0,0,0,0,0,0,0,0,0,0.0338,0.0338,0,0.0373,0.0373,0.0373,0.038,0.038,0.038,0.038,0.0416,0.0417,0.0418,0,0,0,0,0,0,0,0,0,0,0,0,0,0.0278,0.0279,0.0338,0.0338,0.0339,0.0373,0.0373,0.0374,0.038,0.038,0.038,0.038,0.0415,0.0417,0.0418,0,0,0,0,0,0,0,0,0,0,0,0,0,0.0308,0.0279,0.0338,0.0346,0.0347,0.0372,0.0373,0.0374,0.0381,0.038,0.038,0.0379,0.0415,0.0417,0.0418,0.0438,0,0,0.0424,0.0425,0,0,0,0,0,0,0,0,0.0306,0.031,0.0345,0.0346,0.0347,0.0372,0.0365,0.0395,0.0381,0.0368,0.038,0.0379,0.0401,0.0404,0.0412,0.0439,0.0441,0.0424,0.0425,0.0426,0.0426,0,0,0,0,0,0,0,0.0304,0.0308,0.0352,0.0345,0.0347,0.0348,0.0352,0.0371,0.0387,0.0369,0.037,0.0374,0.0402,0.041,0.0413,0.0441,0.0424,0.0426,0.0427,0.0427,0.0486,0.0487,0,0,0,0,0,0,0.03,0.0307,0.0351,0.0353,0.0325,0.035,0.0354,0.0364,0.0386,0.0389,0.0374,0.0374,0.0407,0.041,0.0414,0.0438,0.0426,0.0428,0.0429,0.0486,0.0486,0.0487,0,0,0,0,0,0,0.0299,0.0304,0.0349,0.033,0.0336,0.0351,0.0363,0.0365,0.0373,0.039,0.0393,0.0379,0.0407,0.0411,0.0432,0.0439,0.0428,0.043,0.0485,0.0486,0.0487,0.0486,0,0,0,0,0,0,0.0297,0.0304,0.0311,0.033,0.0337,0.0366,0.0363,0.0366,0.0376,0.0376,0.0396,0.0399,0.0407,0.0429,0.0433,0.0442,0.0432,0.0485,0.0485,0.0486,0.0485,0.0486,0.0487,0,0,0,0,0,0.0295,0.031,0.0311,0.0317,0.0346,0.0367,0.0371,0.038,0.0377,0.0384,0.0395,0.0398,0.0437,0.0431,0.0436,0.0445,0.0484,0.0485,0.0486,0.0485,0.0486,0.0487,0,0,0,0,0,0,0.0291,0.0312,0.0314,0.0336,0.0349,0.0368,0.0378,0.0381,0.0396,0.0396,0.0406,0.0411,0.043,0.044,0.0432,0.0464,0.0461,0.0463,0.0458,0.0459,0.046,0.0458,0.0433,0,0,0,0,0,0.0293,0.0308,0.0325,0.0342,0.0349,0.0362,0.0371,0.0377,0.0392,0.0398,0.041,0.0424,0.044,0.045,0.0465,0.0486,0.0491,0.0495,0.0496,0.0497,0.0499,0.051,0.0513,0.049,0.049,0.049,0,0,0.0297,0.031,0.0319,0.0342,0.0353,0.0368,0.0367,0.0383,0.0394,0.04,0.042,0.0429,0.0446,0.0467,0.0476,0.0475,0.0506,0.0498,0.0499,0.05,0.0512,0.0514,0.0516,0.0491,0.0491,0.0491,0,0,0.0311,0.0322,0.0338,0.0349,0.0366,0.0375,0.0378,0.0396,0.0403,0.0423,0.0427,0.0441,0.0468,0.0479,0.0489,0.0507,0.051,0.0512,0.0517,0.0529,0.053,0.0532,0.0538,0.0541,0.0513,0.0513,0.0513,0,0.0314,0.0336,0.0345,0.0361,0.0371,0.0377,0.0392,0.0403,0.0424,0.0431,0.0429,0.0462,0.0474,0.0497,0.0502,0.0509,0.0514,0.051,0.0529,0.0531,0.0533,0.0539,0.0541,0.0513,0.0513,0.0513,0.0513,0,0.0338,0.0354,0.0364,0.0384,0.0396,0.0411,0.0423,0.0433,0.0438,0.0446,0.0467,0.0481,0.0499,0.0505,0.051,0.0529,0.0527,0.0527,0.0524,0.0535,0.0541,0.0543,0.0513,0.0513,0.0513,0.0513,0,0,0.0352,0.0376,0.038,0.0389,0.0408,0.0421,0.0436,0.0454,0.0462,0.0477,0.049,0.0512,0.0512,0.0523,0.0529,0.0539,0.0552,0.0538,0.0538,0.054,0.0574,0.0574,0.0577,0.0554,0.0555,0.0555,0.0573,0,0.0369,0.0397,0.0405,0.0429,0.0444,0.0449,0.0463,0.0476,0.0484,0.0498,0.0507,0.0523,0.0522,0.0528,0.0538,0.0549,0.0559,0.0547,0.0567,0.0568,0.0563,0.058,0.058,0.0596,0.0575,0.0576,0.0576,0,0.0392,0.0407,0.0432,0.0449,0.0455,0.0467,0.0484,0.0497,0.0512,0.0517,0.0529,0.0534,0.055,0.0546,0.0569,0.056,0.0569,0.0575,0.0576,0.0578,0.0573,0.0583,0.0602,0.0604,0.058,0.058,0.0579,0,0.0399,0.0425,0.0444,0.0451,0.0471,0.048,0.0489,0.0503,0.0513,0.0527,0.0534,0.055,0.0559,0.0572,0.0581,0.0577,0.0603,0.0599,0.0608,0.0608,0.0614,0.0613,0.0634,0.0619,0.0619,0.0619,0.0619,0,0.0417,0.0433,0.0447,0.0458,0.0476,0.0485,0.0502,0.0511,0.0523,0.0537,0.0542,0.0554,0.0566,0.058,0.0587,0.0605,0.0609,0.0614,0.0616,0.0614,0.0613,0.0619,0.0619,0.0619,0.0619,0.0619,0.0619,0,0.0429,0.0439,0.0459,0.0477,0.0481,0.0493,0.0508,0.0519,0.0528,0.0544,0.0549,0.0562,0.0578,0.0589,0.061,0.0615,0.0634,0.0636,0.0629,0.063,0.0639,0.0638,0.0664,0.0668,0.065,0.065,0.0651,0,0.044,0.0451,0.047,0.0479,0.0488,0.0502,0.0512,0.0522,0.0532,0.055,0.0559,0.0576,0.0589,0.0615,0.0627,0.0643,0.0645,0.0653,0.0647,0.0645,0.0645,0.0644,0.0645,0.0654,0.0654,0.0654,0.0654,0,0.0458,0.0462,0.0476,0.0492,0.0504,0.0517,0.053,0.0537,0.0549,0.0561,0.0577,0.0588,0.0609,0.0626,0.0642,0.0652,0.0655,0.0656,0.0659,0.0657,0.0653,0.0655,0.0632,0.0656,0.0655,0.0655,0.0655,0.0655,0.0469,0.048,0.0494,0.051,0.0521,0.0533,0.0544,0.0554,0.0568,0.0586,0.0591,0.0608,0.0622,0.0645,0.0655,0.0668,0.0667,0.0672,0.0673,0.0674,0.0674,0.065,0.0671,0.0671,0.0671,0.0671,0.0671,0,0.0488,0.0497,0.0511,0.0529,0.0542,0.0544,0.0558,0.0568,0.0583,0.0596,0.061,0.0629,0.0645,0.0657,0.0674,0.0682,0.0684,0.0686,0.0686,0.0688,0.0674,0.067,0.0684,0.0684,0.0684,0.0684,0.0684,0.0684,0.0499,0.0517,0.0523,0.0546,0.0556,0.0573,0.0581,0.0592,0.0602,0.0623,0.0636,0.0645,0.0657,0.0675,0.0689,0.0692,0.0698,0.07,0.0703,0.069,0.0689,0.0687,0.0684,0.0701,0.0701,0.0716,0.0717,0.0717]}]]